This demonstration page uses our WeatherBlox Daily Observations layout. Learn more.

Left ArrowRight Arrow

40.92945, -100.16068

Hourly Observations for October 18, 2020

Temp ( °F °C ) Dew Point ( °F °C ) Humidity (%) Winds ( mph kmh ) Pressure ( in mb ) Visibility ( mi km ) Precip ( " mm )
12:15 am 00:15 Cloudy with Light Rain 38 3.2 35 1.5 89 89 NNE 13 20 30.19 1022 10 16.0934 0 0
12:35 am 00:35 Cloudy with Light Rain 37 3 35 1.5 90 90 N 12 19 30.2 1023 10 16.0934 0 0
12:55 am 00:55 Cloudy 37 2.6 34 1.3 91 91 N 14 22 30.21 1023 10 16.0934 0 0
1:15 am 01:15 Cloudy 36 2.3 34 1 91 91 NNE 14 22 30.21 1023 10 16.0934 0 0
1:35 am 01:35 Cloudy 36 2.3 33 0.8 90 90 N 20 31 30.22 1024 10 16.0934 0 0
1:55 am 01:55 Cloudy 36 2 33 0.4 89 89 NNE 16 26 30.23 1024 10 16.0934 0 0
2:15 am 02:15 Cloudy 36 2 33 0.3 89 89 N 13 20 30.24 1024 10 16.0934 0 0
2:35 am 02:35 Cloudy 35 1.7 32 0.1 89 89 NNE 14 22 30.24 1024 10 16.0934 0 0
2:55 am 02:55 Cloudy 35 1.5 32 0 90 90 N 10 17 30.27 1025 10 16.0934 0 0
3:15 am 03:15 Cloudy 35 1.5 32 0 90 90 NNE 12 19 30.26 1025 10 16.0934 0 0
3:35 am 03:35 Cloudy 35 1.5 32 -0.1 89 89 NNE 14 22 30.26 1025 10 16.0934 0 0
3:55 am 03:55 Cloudy 34 1.2 31 -0.3 90 90 NNE 16 26 30.26 1025 10 16.0934 0 0
4:15 am 04:15 Cloudy 34 1.1 31 -0.5 89 89 N 12 19 30.28 1025 10 16.0934 0 0
4:35 am 04:35 Cloudy 34 1 31 -0.5 90 90 N 12 19 30.29 1026 10 16.0934 0 0
4:55 am 04:55 Cloudy 34 1 31 -0.6 89 89 NNE 12 19 30.3 1026 10 16.0934 0 0
5:15 am 05:15 Cloudy 34 1 31 -0.5 90 90 NNE 12 19 30.3 1026 10 16.0934 0 0
5:35 am 05:35 Cloudy 34 1 31 -0.5 90 90 NNE 8 13 30.31 1026 10 16.0934 0 0
5:55 am 05:55 Cloudy 34 1 31 -0.7 89 89 NNE 10 17 30.3 1026 10 16.0934 0 0
6:15 am 06:15 Cloudy 34 1 31 -0.6 89 89 NNE 10 17 30.32 1027 10 16.0934 0 0
6:35 am 06:35 Cloudy 34 1 30 -0.9 87 87 N 12 19 30.33 1027 10 16.0934 0 0
6:55 am 06:55 Cloudy 34 1 31 -0.7 89 89 NNE 10 17 30.33 1027 10 16.0934 0 0
7:15 am 07:15 Cloudy 34 1 30 -0.9 87 87 N 15 24 30.34 1027 10 16.0934 0 0
7:35 am 07:35 Cloudy 33 0.8 30 -1.2 87 87 N 17 28 30.35 1028 10 16.0934 0 0
7:55 am 07:55 Cloudy 33 0.6 29 -1.9 84 84 N 18 30 30.35 1028 10 16.0934 0 0
8:15 am 08:15 Cloudy 33 0.5 29 -1.9 84 84 N 14 22 30.36 1028 10 16.0934 0 0
8:35 am 08:35 Cloudy 33 0.5 29 -1.7 85 85 NNE 14 22 30.36 1028 10 16.0934 0 0
8:55 am 08:55 Cloudy 33 0.6 29 -1.6 85 85 N 12 19 30.37 1029 10 16.0934 0 0
9:15 am 09:15 Cloudy 33 0.7 28 -2.2 81 81 NNE 12 19 30.37 1028 10 16.0934 0 0
9:35 am 09:35 Cloudy 33 0.6 27 -2.6 79 79 NNE 13 20 30.38 1029 10 16.0934 0 0
9:55 am 09:55 Cloudy 33 0.7 28 -2.5 79 79 NNE 13 20 30.4 1029 10 16.0934 0 0
10:15 am 10:15 Cloudy 34 1.1 28 -2 80 80 NNE 10 17 30.41 1030 10 16.0934 0 0
10:35 am 10:35 Cloudy 34 1.1 28 -2.3 78 78 NNE 12 19 30.41 1030 10 16.0934 0 0
10:55 am 10:55 Cloudy 34 1.2 28 -2.4 77 77 N 10 17 30.41 1030 10 16.0934 0 0
11:15 am 11:15 Cloudy 34 1.2 28 -2.3 78 78 NNE 9 15 30.41 1030 10 16.0934 0 0
11:35 am 11:35 Cloudy 35 1.5 28 -2.3 76 76 N 9 15 30.4 1030 10 16.0934 0 0
11:55 am 11:55 Cloudy 35 1.6 28 -2.4 75 75 NNE 8 13 30.4 1030 10 16.0934 0 0
12:15 pm 12:15 Cloudy 35 1.5 28 -2.2 77 77 NE 8 13 30.39 1029 10 16.0934 0 0
12:35 pm 12:35 Cloudy 36 2.1 28 -2.5 72 72 ENE 9 15 30.39 1029 10 16.0934 0 0
12:55 pm 12:55 Cloudy 36 2.2 28 -2.4 72 72 NE 6 9 30.38 1029 10 16.0934 0 0
1:15 pm 13:15 Cloudy 37 2.7 28 -2.5 69 69 NE 7 11 30.37 1028 10 16.0934 0 0
1:35 pm 13:35 Cloudy 38 3.3 27 -2.6 66 66 N 9 15 30.35 1028 10 16.0934 0 0
1:55 pm 13:55 Cloudy 37 2.9 26 -3.4 64 64 ENE 7 11 30.34 1027 10 16.0934 0 0
2:15 pm 14:15 Mostly Cloudy 38 3.3 27 -3 64 64 ESE 3 6 30.33 1027 10 16.0934 0 0
2:35 pm 14:35 Mostly Cloudy 39 3.7 27 -2.8 63 63 NE 5 7 30.3 1026 10 16.0934 0 0
2:55 pm 14:55 Mostly Cloudy 38 3.5 27 -3 63 63 NE 5 7 30.29 1026 10 16.0934 0 0
3:15 pm 15:15 Partly Cloudy 39 3.7 26 -3.2 61 61 ENE 9 15 30.28 1025 10 16.0934 0 0
3:35 pm 15:35 Mostly Cloudy 39 4.1 25 -3.9 56 56 NNE 7 11 30.28 1025 10 16.0934 0 0
3:55 pm 15:55 Partly Cloudy 40 4.4 22 -5.3 50 50 NE 9 15 30.26 1025 10 16.0934 0 0
4:15 pm 16:15 Partly Cloudy 40 4.2 23 -5.2 51 51 ENE 8 13 30.28 1025 10 16.0934 0 0
4:35 pm 16:35 Sunny 40 4.2 22 -5.7 49 49 NE 6 9 30.27 1025 10 16.0934 0 0
4:55 pm 16:55 Sunny 39 4.1 22 -5.3 51 51 NE 5 7 30.29 1026 10 16.0934 0 0
5:15 pm 17:15 Mostly Cloudy 39 3.8 23 -5.2 52 52 E 6 9 30.29 1026 10 16.0934 0 0
5:35 pm 17:35 Cloudy 39 3.8 23 -5 53 53 NE 7 11 30.3 1026 10 16.0934 0 0
5:55 pm 17:55 Cloudy 38 3.5 23 -5.1 54 54 NE 8 13 30.3 1026 10 16.0934 0 0
6:15 pm 18:15 Cloudy 38 3.3 22 -5.4 53 53 ENE 8 13 30.31 1026 10 16.0934 0 0
6:35 pm 18:35 Cloudy 38 3.1 22 -5.5 54 54 ENE 9 15 30.3 1026 10 16.0934 0 0
6:55 pm 18:55 Cloudy with Light Rain 36 2.3 25 -4 63 63 NE 12 19 30.31 1027 10 16.0934 0 0
7:15 pm 19:15 Cloudy with Light Snow 33 0.5 29 -1.6 86 86 NE 10 17 30.33 1027 7 11.26538 0.01 0.254
7:35 pm 19:35 Cloudy with Light Snow 32 0 30 -1 93 93 ENE 10 17 30.33 1027 5 8.0467 0.02 0.508
7:55 pm 19:55 Cloudy with Light Wintry Mix 32 0 30 -1 93 93 ENE 12 19 30.31 1026 5 8.0467 0.03 0.762
8:15 pm 20:15 Cloudy 32 -0.1 30 -1.3 92 92 E 10 17 30.32 1027 10 16.0934 0 0
8:35 pm 20:35 Cloudy 32 -0.2 29 -1.5 91 91 ENE 10 17 30.31 1026 10 16.0934 0 0
8:55 pm 20:55 Cloudy 31 -0.4 29 -1.5 92 92 ENE 8 13 30.3 1026 10 16.0934 0 0
9:15 pm 21:15 Mostly Cloudy 31 -0.5 28 -2 90 90 NE 8 13 30.33 1027 10 16.0934 0 0
9:35 pm 21:35 Mostly Cloudy 31 -0.7 28 -2.3 89 89 NE 5 7 30.34 1028 10 16.0934 0 0
9:55 pm 21:55 Mostly Cloudy 31 -0.6 28 -2.4 88 88 ENE 7 11 30.33 1027 10 16.0934 0 0
10:15 pm 22:15 Mostly Cloudy 31 -0.6 28 -2.3 88 88 E 8 13 30.31 1027 10 16.0934 0 0
10:35 pm 22:35 Mostly Cloudy 31 -0.6 28 -2.5 87 87 ENE 7 11 30.32 1027 10 16.0934 0 0
10:55 pm 22:55 Cloudy 31 -0.6 27 -2.8 85 85 E 8 13 30.32 1027 10 16.0934 0 0
11:15 pm 23:15 Cloudy 31 -0.5 28 -2.5 87 87 ENE 7 11 30.34 1028 10 16.0934 0 0
11:35 pm 23:35 Cloudy 31 -0.5 28 -2.5 87 87 E 8 13 30.33 1027 10 16.0934 0 0
11:55 pm 23:55 Cloudy 31 -0.4 27 -2.6 85 85 ENE 8 13 30.33 1027 10 16.0934 0 0

Powered by AerisWeather